Pratica di Mare, Italy

6:11 AM CET on February 20, 2017 (GMT +0100)
Pratica Di Mare Mil

Weather History for LIRE - December, 2013

Change the Weather History Date:

Tuesday, December 17, 2013

  Actual Average Record
Temperature  
Mean Temperature 48 °F -  
Max Temperature 60 °F 56 °F 61 °F (2015)
Min Temperature 36 °F 40 °F 24 °F (2010)
Degree Days  
Heating Degree Days 17    
Moisture  
Dew Point 39 °F    
Average Humidity 77    
Maximum Humidity 100    
Minimum Humidity 47    
Precipitation  
Precipitation 0.00 in 0.12 in - ()
Sea Level Pressure  
Sea Level Pressure 30.44 in    
Wind  
Wind Speed 5 mph ()    
Max Wind Speed 12 mph    
Max Gust Speed -    
Visibility 6.7 miles    
Events      
Averages and records for this station are not official NWS values.
T = Trace of Precipitation, MM = Missing Value Source: Averaged Metar Reports

Daily Weather History Graph

Daily Weather History Graph

Search for Another Location

Airport or City:

Trip Planner

Search our weather history database for the weather conditions in past years. The results will help you decide how hot, cold, wet, or windy it might be!

Date:

Astronomy

Dec. 17, 2013 Rise Set
Actual Time 7:31 AM CET 4:41 PM CET
Civil Twilight 6:59 AM CET 5:12 PM CET
Nautical Twilight 6:24 AM CET 5:47 PM CET
Astronomical Twilight 5:51 AM CET 6:21 PM CET
Moon 5:07 PM CET (12/17) 7:13 AM CET (12/17)
Length of Visible Light 10h 12m
Length of Day
9h 09m
Full, 100% of the Moon is Illuminated
Dec 17
Full
Dec 25
Last Quarter
Jan 1
New
Jan 8
First Quarter
Jan 16
Full

Hourly Weather History & Observations

Time (CET) Temp. Windchill Dew Point Humidity Pressure Visibility Wind Dir Wind Speed Gust Speed Precip Events Conditions
12:55 AM 39.2 °F 35.0 °F 35.6 °F 87% 30.48 in - NE 5.8 mph - N/A   Clear
1:00 AM 39 °F - 35 °F 80% 30.50 in 7 mi NE 5.8 mph - -  
1:55 AM 39.2 °F - 35.6 °F 87% 30.48 in - Variable 2.3 mph - N/A   Clear
2:55 AM 37.4 °F 33.8 °F 33.8 °F 87% 30.48 in - North 4.6 mph - N/A   Clear
3:55 AM 37.4 °F 32.8 °F 33.8 °F 87% 30.48 in - North 5.8 mph - N/A   Clear
4:00 AM 38 °F - 34 °F 80% 30.49 in 7 mi North 5.8 mph - -  
4:55 AM 37.4 °F 32.1 °F 33.8 °F 87% 30.48 in - NNE 6.9 mph - N/A   Clear
5:55 AM 37.4 °F 32.1 °F 33.8 °F 87% 30.45 in - NNE 6.9 mph - N/A   Clear
6:55 AM 39.2 °F 32.0 °F 30.2 °F 70% 30.45 in - NNE 11.5 mph - N/A   Clear
7:00 AM 39 °F - 31 °F 63% 30.47 in 9 mi NNE 11.5 mph - -  
7:55 AM 39.2 °F 32.0 °F 33.8 °F 81% 30.45 in - NNE 11.5 mph - N/A   Clear
8:55 AM 42.8 °F 37.0 °F 33.8 °F 70% 30.45 in - NNE 10.4 mph - N/A   Clear
9:55 AM 48.2 °F - 35.6 °F 62% 30.45 in - NNE 3.5 mph - N/A   Clear
10:00 AM 49 °F - 36 °F 49% 30.48 in 16 mi NNE 3.5 mph - -  
10:55 AM 55.4 °F - 35.6 °F 47% 30.48 in - East 2.3 mph - N/A   Clear
11:55 AM 59.0 °F - 41.0 °F 51% 30.45 in - Variable 1.2 mph - N/A   Clear
12:55 PM 59.0 °F - 48.2 °F 67% 30.42 in 6.2 mi WSW 3.5 mph - N/A   Partly Cloudy
1:00 PM 60 °F - 47 °F 53% 30.44 in 7 mi WSW 3.5 mph - -   Scattered Clouds
1:55 PM 59.0 °F - 48.2 °F 67% 30.42 in - WSW 4.6 mph - N/A   Clear
2:55 PM 59.0 °F - 50.0 °F 72% 30.39 in - WSW 6.9 mph - N/A   Clear
3:55 PM 59.0 °F - 48.2 °F 67% 30.39 in - WSW 3.5 mph - N/A   Clear
4:00 PM 58 °F - 48 °F 60% 30.41 in 7 mi WSW 3.5 mph - -  
4:55 PM 51.8 °F - 42.8 °F 71% 30.39 in 6.2 mi ENE 1.2 mph - N/A   Scattered Clouds
5:55 PM 44.6 °F 43.1 °F 41.0 °F 87% 30.39 in 5.0 mi NE 3.5 mph - N/A   Scattered Clouds
6:55 PM 42.8 °F 41.1 °F 42.8 °F 100% 30.39 in 5.6 mi NE 3.5 mph - N/A   Unknown
7:00 PM 44 °F - 42 °F 91% 30.40 in 6 mi NE 3.5 mph - -   Mist
7:55 PM 42.8 °F 41.1 °F 41.0 °F 93% 30.39 in - ENE 3.5 mph - N/A   Clear
8:55 PM 41.0 °F 39.0 °F 39.2 °F 93% 30.39 in 5.0 mi NE 3.5 mph - N/A   Unknown
9:55 PM 41.0 °F 39.0 °F 39.2 °F 93% 30.39 in 5.0 mi NE 3.5 mph - N/A   Unknown
10:00 PM 41 °F - 40 °F 93% 30.41 in 5 mi NE 3.5 mph - -   Mist
10:55 PM 44.6 °F 43.1 °F 42.8 °F 93% 30.39 in 5.0 mi NE 3.5 mph - N/A   Unknown
11:55 PM 42.8 °F 38.6 °F 41.0 °F 93% 30.45 in 5.0 mi ENE 6.9 mph - N/A   Unknown